Time,TemperatureF,DewpointF,PressureIn,WindDirection,WindDirectionDegrees,WindSpeedMPH,WindSpeedGustMPH,Humidity,HourlyPrecipIn,Conditions,Clouds,dailyrainin,SoftwareType,DateUTC
2013-02-02 00:03:00,22.5,16.4,30.38,NW,307,0.0,30.0,77,0.00,,,0.00,Wunderground v.1.15,2013-02-02 06:03:00,
2013-02-02 00:08:00,22.3,16.2,30.38,NW,304,0.0,30.0,77,0.00,,,0.00,Wunderground v.1.15,2013-02-02 06:08:00,
2013-02-02 00:13:00,22.2,16.4,30.37,NW,304,0.0,30.0,78,0.00,,,0.00,Wunderground v.1.15,2013-02-02 06:13:00,
2013-02-02 00:19:00,22.2,16.4,30.37,NW,304,1.0,30.0,78,0.00,,,0.00,Wunderground v.1.15,2013-02-02 06:19:00,
2013-02-02 00:24:00,22.3,16.5,30.37,NW,304,1.0,30.0,78,0.00,,,0.00,Wunderground v.1.15,2013-02-02 06:24:00,
2013-02-02 00:29:00,22.5,16.4,30.37,NW,304,1.0,30.0,77,0.00,,,0.00,Wunderground v.1.15,2013-02-02 06:29:00,
2013-02-02 00:35:00,22.4,16.6,30.36,NW,304,0.0,30.0,78,0.00,,,0.00,Wunderground v.1.15,2013-02-02 06:35:00,
2013-02-02 00:40:00,22.3,16.5,30.36,NW,304,1.0,1.0,78,0.00,,,0.00,Wunderground v.1.15,2013-02-02 06:40:00,
2013-02-02 00:45:00,22.2,16.7,30.36,NW,305,1.0,30.0,79,0.00,,,0.00,Wunderground v.1.15,2013-02-02 06:45:00,
2013-02-02 00:51:00,22.2,16.7,30.36,NW,305,0.0,30.0,79,0.00,,,0.00,Wunderground v.1.15,2013-02-02 06:51:00,
2013-02-02 00:56:00,22.1,16.9,30.37,NW,304,0.0,30.0,80,0.00,,,0.00,Wunderground v.1.15,2013-02-02 06:56:00,
2013-02-02 01:01:00,22.1,16.9,30.37,WNW,302,0.0,30.0,80,0.00,,,0.00,Wunderground v.1.15,2013-02-02 07:01:00,
2013-02-02 01:07:00,22.0,16.5,30.37,WNW,302,0.0,30.0,79,0.00,,,0.00,Wunderground v.1.15,2013-02-02 07:07:00,
2013-02-02 01:12:00,21.9,17.0,30.37,WNW,295,0.0,30.0,81,0.00,,,0.00,Wunderground v.1.15,2013-02-02 07:12:00,
2013-02-02 01:17:00,21.6,16.7,30.37,West,279,0.0,30.0,81,0.00,,,0.00,Wunderground v.1.15,2013-02-02 07:17:00,
2013-02-02 01:23:00,21.5,17.1,30.37,West,278,1.0,30.0,83,0.00,,,0.00,Wunderground v.1.15,2013-02-02 07:23:00,
2013-02-02 01:28:00,21.4,17.3,30.37,West,276,1.0,30.0,84,0.00,,,0.00,Wunderground v.1.15,2013-02-02 07:28:00,
2013-02-02 01:33:00,21.4,17.6,30.37,West,274,1.0,30.0,85,0.00,,,0.00,Wunderground v.1.15,2013-02-02 07:33:00,
2013-02-02 01:38:00,21.5,18.0,30.37,West,276,1.0,30.0,86,0.00,,,0.00,Wunderground v.1.15,2013-02-02 07:38:00,
2013-02-02 01:44:00,21.5,17.7,30.37,West,280,1.0,30.0,85,0.00,,,0.00,Wunderground v.1.15,2013-02-02 07:44:00,
2013-02-02 01:49:00,21.5,17.4,30.37,West,280,1.0,30.0,84,0.00,,,0.00,Wunderground v.1.15,2013-02-02 07:49:00,
2013-02-02 01:57:00,21.7,17.1,30.37,West,280,0.0,30.0,82,0.00,,,0.00,Wunderground v.1.15,2013-02-02 07:57:00,
2013-02-02 02:06:00,21.9,16.7,30.37,West,279,1.0,30.0,80,0.00,,,0.00,Wunderground v.1.15,2013-02-02 08:06:00,
2013-02-02 02:12:00,22.1,16.6,30.37,West,280,1.0,30.0,79,0.00,,,0.00,Wunderground v.1.15,2013-02-02 08:12:00,
2013-02-02 02:17:00,22.3,16.5,30.37,WNW,282,1.0,30.0,78,0.00,,,0.00,Wunderground v.1.15,2013-02-02 08:17:00,
2013-02-02 02:22:00,22.4,16.6,30.36,West,280,1.0,30.0,78,0.00,,,0.00,Wunderground v.1.15,2013-02-02 08:22:00,
2013-02-02 02:28:00,22.5,16.7,30.37,West,280,1.0,30.0,78,0.00,,,0.00,Wunderground v.1.15,2013-02-02 08:28:00,
2013-02-02 02:33:00,22.6,16.8,30.36,West,277,1.0,30.0,78,0.00,,,0.00,Wunderground v.1.15,2013-02-02 08:33:00,
2013-02-02 02:38:00,22.7,16.9,30.36,West,271,1.0,30.0,78,0.00,,,0.00,Wunderground v.1.15,2013-02-02 08:38:00,
2013-02-02 02:44:00,22.6,16.5,30.36,West,280,1.0,30.0,77,0.00,,,0.00,Wunderground v.1.15,2013-02-02 08:44:00,
2013-02-02 02:49:00,22.5,16.4,30.36,West,280,1.0,30.0,77,0.00,,,0.00,Wunderground v.1.15,2013-02-02 08:49:00,
2013-02-02 02:54:00,22.2,16.1,30.36,West,280,1.0,30.0,77,0.00,,,0.00,Wunderground v.1.15,2013-02-02 08:54:00,
2013-02-02 02:59:00,22.0,16.2,30.36,West,280,0.0,30.0,78,0.00,,,0.00,Wunderground v.1.15,2013-02-02 08:59:00,
2013-02-02 03:05:00,21.9,16.1,30.36,West,280,0.0,30.0,78,0.00,,,0.00,Wunderground v.1.15,2013-02-02 09:05:00,
2013-02-02 03:10:00,21.6,16.1,30.36,West,280,0.0,30.0,79,0.00,,,0.00,Wunderground v.1.15,2013-02-02 09:10:00,
2013-02-02 03:15:00,21.3,16.1,30.35,WNW,283,0.0,30.0,80,0.00,,,0.00,Wunderground v.1.15,2013-02-02 09:15:00,
2013-02-02 03:20:00,21.0,16.1,30.35,WNW,287,0.0,30.0,81,0.00,,,0.00,Wunderground v.1.15,2013-02-02 09:20:00,
2013-02-02 03:26:00,20.6,16.0,30.35,WNW,287,0.0,30.0,82,0.00,,,0.00,Wunderground v.1.15,2013-02-02 09:26:00,
2013-02-02 03:31:00,20.5,16.2,30.35,WNW,288,0.0,30.0,83,0.00,,,0.00,Wunderground v.1.15,2013-02-02 09:31:00,
2013-02-02 03:36:00,20.4,16.3,30.35,WNW,287,0.0,30.0,84,0.00,,,0.00,Wunderground v.1.15,2013-02-02 09:36:00,
2013-02-02 03:42:00,20.4,16.3,30.35,WNW,287,0.0,30.0,84,0.00,,,0.00,Wunderground v.1.15,2013-02-02 09:42:00,
2013-02-02 03:47:00,20.4,16.3,30.35,WNW,287,0.0,30.0,84,0.00,,,0.00,Wunderground v.1.15,2013-02-02 09:47:00,
2013-02-02 03:52:00,20.1,15.8,30.35,WNW,288,0.0,30.0,83,0.00,,,0.00,Wunderground v.1.15,2013-02-02 09:52:00,
2013-02-02 03:58:00,20.0,16.2,30.35,WNW,287,0.0,30.0,85,0.00,,,0.00,Wunderground v.1.15,2013-02-02 09:58:00,
2013-02-02 04:03:00,20.3,16.5,30.35,WNW,287,0.0,30.0,85,0.00,,,0.00,Wunderground v.1.15,2013-02-02 10:03:00,
2013-02-02 04:08:00,20.5,16.4,30.35,WNW,287,0.0,30.0,84,0.00,,,0.00,Wunderground v.1.15,2013-02-02 10:08:00,
2013-02-02 04:13:00,20.5,16.2,30.35,WNW,288,0.0,30.0,83,0.00,,,0.00,Wunderground v.1.15,2013-02-02 10:13:00,
2013-02-02 04:19:00,20.5,16.4,30.35,WNW,288,0.0,30.0,84,0.00,,,0.00,Wunderground v.1.15,2013-02-02 10:19:00,
2013-02-02 04:24:00,20.7,16.6,30.35,WNW,287,0.0,30.0,84,0.00,,,0.00,Wunderground v.1.15,2013-02-02 10:24:00,
2013-02-02 04:29:00,20.7,16.6,30.35,WNW,287,0.0,30.0,84,0.00,,,0.00,Wunderground v.1.15,2013-02-02 10:29:00,
2013-02-02 04:35:00,20.9,16.8,30.35,WNW,287,0.0,30.0,84,0.00,,,0.00,Wunderground v.1.15,2013-02-02 10:35:00,
2013-02-02 04:40:00,20.8,16.7,30.35,WNW,286,0.0,30.0,84,0.00,,,0.00,Wunderground v.1.15,2013-02-02 10:40:00,
2013-02-02 04:45:00,20.6,16.8,30.35,WNW,286,0.0,30.0,85,0.00,,,0.00,Wunderground v.1.15,2013-02-02 10:45:00,
2013-02-02 04:50:00,20.4,17.1,30.35,WNW,286,0.0,30.0,87,0.00,,,0.00,Wunderground v.1.15,2013-02-02 10:50:00,
2013-02-02 04:56:00,20.4,17.4,30.35,WNW,285,0.0,30.0,88,0.00,,,0.00,Wunderground v.1.15,2013-02-02 10:56:00,
2013-02-02 05:01:00,20.4,17.7,30.34,WNW,288,0.0,30.0,89,0.00,,,0.00,Wunderground v.1.15,2013-02-02 11:01:00,
2013-02-02 05:06:00,20.5,17.8,30.34,WNW,286,0.0,30.0,89,0.00,,,0.00,Wunderground v.1.15,2013-02-02 11:06:00,
2013-02-02 05:12:00,20.4,17.7,30.34,WNW,288,0.0,30.0,89,0.00,,,0.00,Wunderground v.1.15,2013-02-02 11:12:00,
2013-02-02 05:17:00,20.5,17.8,30.34,WNW,287,0.0,30.0,89,0.00,,,0.00,Wunderground v.1.15,2013-02-02 11:17:00,
2013-02-02 05:22:00,20.6,17.9,30.34,WNW,287,0.0,30.0,89,0.00,,,0.00,Wunderground v.1.15,2013-02-02 11:22:00,
2013-02-02 05:28:00,20.8,18.1,30.34,WNW,288,0.0,30.0,89,0.00,,,0.00,Wunderground v.1.15,2013-02-02 11:28:00,
2013-02-02 05:34:00,20.9,17.9,30.34,WNW,287,0.0,30.0,88,0.00,,,0.00,Wunderground v.1.15,2013-02-02 11:34:00,
2013-02-02 05:39:00,21.0,18.0,30.34,WNW,287,0.0,30.0,88,0.00,,,0.00,Wunderground v.1.15,2013-02-02 11:39:00,
2013-02-02 05:44:00,21.1,18.1,30.34,WNW,288,0.0,30.0,88,0.00,,,0.00,Wunderground v.1.15,2013-02-02 11:44:00,
2013-02-02 05:50:00,21.2,18.2,30.34,WNW,287,0.0,30.0,88,0.00,,,0.00,Wunderground v.1.15,2013-02-02 11:50:00,
2013-02-02 05:55:00,21.2,18.2,30.34,WNW,287,0.0,30.0,88,0.00,,,0.00,Wunderground v.1.15,2013-02-02 11:55:00,
2013-02-02 06:00:00,21.4,18.7,30.34,NW,305,0.0,30.0,89,0.00,,,0.00,Wunderground v.1.15,2013-02-02 12:00:00,
2013-02-02 06:06:00,21.3,18.6,30.34,NW,304,0.0,30.0,89,0.00,,,0.00,Wunderground v.1.15,2013-02-02 12:06:00,
2013-02-02 06:11:00,21.2,18.5,30.33,NW,305,0.0,30.0,89,0.00,,,0.00,Wunderground v.1.15,2013-02-02 12:11:00,
2013-02-02 06:16:00,21.3,18.6,30.33,NW,306,0.0,30.0,89,0.00,,,0.00,Wunderground v.1.15,2013-02-02 12:16:00,
2013-02-02 06:21:00,21.3,18.6,30.33,NW,304,0.0,30.0,89,0.00,,,0.00,Wunderground v.1.15,2013-02-02 12:21:00,
2013-02-02 06:27:00,21.3,18.6,30.33,NW,304,0.0,30.0,89,0.00,,,0.00,Wunderground v.1.15,2013-02-02 12:27:00,
2013-02-02 06:32:00,21.3,18.6,30.33,NW,304,0.0,30.0,89,0.00,,,0.00,Wunderground v.1.15,2013-02-02 12:32:00,
2013-02-02 06:37:00,21.3,18.6,30.33,NW,304,0.0,30.0,89,0.00,,,0.00,Wunderground v.1.15,2013-02-02 12:37:00,
2013-02-02 06:43:00,21.3,18.8,30.33,NW,304,0.0,30.0,90,0.00,,,0.00,Wunderground v.1.15,2013-02-02 12:43:00,
2013-02-02 06:48:00,21.2,18.7,30.33,NW,309,0.0,30.0,90,0.00,,,0.00,Wunderground v.1.15,2013-02-02 12:48:00,
2013-02-02 06:53:00,21.2,18.7,30.33,NW,307,0.0,30.0,90,0.00,,,0.00,Wunderground v.1.15,2013-02-02 12:53:00,
2013-02-02 06:59:00,21.1,18.6,30.33,NW,307,0.0,30.0,90,0.00,,,0.00,Wunderground v.1.15,2013-02-02 12:59:00,
2013-02-02 07:04:00,21.2,18.7,30.33,NW,307,0.0,30.0,90,0.00,,,0.00,Wunderground v.1.15,2013-02-02 13:04:00,
2013-02-02 07:09:00,21.4,19.2,30.32,NW,307,0.0,30.0,91,0.00,,,0.00,Wunderground v.1.15,2013-02-02 13:09:00,
2013-02-02 07:14:00,21.6,19.1,30.33,NW,307,0.0,30.0,90,0.00,,,0.00,Wunderground v.1.15,2013-02-02 13:14:00,
2013-02-02 07:20:00,21.7,19.0,30.33,NW,307,0.0,30.0,89,0.00,,,0.00,Wunderground v.1.15,2013-02-02 13:20:00,
2013-02-02 07:25:00,21.9,19.2,30.34,NNW,347,1.0,30.0,89,0.00,,,0.00,Wunderground v.1.15,2013-02-02 13:25:00,
2013-02-02 07:30:00,22.1,19.4,30.37,WNW,285,3.0,30.0,89,0.00,,,0.00,Wunderground v.1.15,2013-02-02 13:30:00,
2013-02-02 07:36:00,22.4,19.6,30.38,NNW,327,5.0,30.0,89,0.00,,,0.00,Wunderground v.1.15,2013-02-02 13:36:00,
2013-02-02 07:41:00,22.7,19.7,30.38,ENE,70,4.0,30.0,88,0.00,,,0.00,Wunderground v.1.15,2013-02-02 13:41:00,
2013-02-02 07:46:00,23.0,20.0,30.38,NW,307,4.0,30.0,88,0.00,,,0.00,Wunderground v.1.15,2013-02-02 13:46:00,
2013-02-02 07:52:00,23.1,19.8,30.37,NNE,27,4.0,30.0,87,0.00,,,0.00,Wunderground v.1.15,2013-02-02 13:52:00,
2013-02-02 07:58:00,23.1,20.1,30.36,NNW,327,3.0,30.0,88,0.00,,,0.00,Wunderground v.1.15,2013-02-02 13:58:00,
2013-02-02 08:03:00,23.3,19.5,30.36,NNW,328,3.0,30.0,85,0.00,,,0.00,Wunderground v.1.15,2013-02-02 14:03:00,
2013-02-02 08:09:00,23.7,19.9,30.36,NNW,338,3.0,30.0,85,0.00,,,0.00,Wunderground v.1.15,2013-02-02 14:09:00,
2013-02-02 08:14:00,24.0,19.9,30.37,NW,307,3.0,30.0,84,0.00,,,0.00,Wunderground v.1.15,2013-02-02 14:14:00,
2013-02-02 08:19:00,24.3,19.9,30.37,NNW,335,3.0,30.0,83,0.00,,,0.00,Wunderground v.1.15,2013-02-02 14:19:00,
2013-02-02 08:25:00,24.5,19.8,30.39,WNW,290,2.0,30.0,82,0.00,,,0.00,Wunderground v.1.15,2013-02-02 14:25:00,
2013-02-02 08:31:00,24.8,20.1,30.37,WSW,244,2.0,30.0,82,0.00,,,0.00,Wunderground v.1.15,2013-02-02 14:31:00,
2013-02-02 08:36:00,25.1,20.1,30.39,West,280,1.0,30.0,81,0.00,,,0.00,Wunderground v.1.15,2013-02-02 14:36:00,
2013-02-02 08:42:00,25.3,20.3,30.38,WNW,293,1.0,30.0,81,0.00,,,0.00,Wunderground v.1.15,2013-02-02 14:42:00,
2013-02-02 08:47:00,25.4,20.1,30.38,WNW,282,1.0,30.0,80,0.00,,,0.00,Wunderground v.1.15,2013-02-02 14:47:00,
2013-02-02 08:53:00,25.5,20.5,30.38,WNW,290,2.0,30.0,81,0.00,,,0.00,Wunderground v.1.15,2013-02-02 14:53:00,
2013-02-02 08:58:00,25.5,20.5,30.39,West,281,2.0,30.0,81,0.00,,,0.00,Wunderground v.1.15,2013-02-02 14:58:00,
2013-02-02 09:03:00,25.3,20.3,30.38,West,281,2.0,30.0,81,0.00,,,0.00,Wunderground v.1.15,2013-02-02 15:03:00,
2013-02-02 09:09:00,25.5,20.5,30.37,West,272,1.0,30.0,81,0.00,,,0.00,Wunderground v.1.15,2013-02-02 15:09:00,
2013-02-02 09:14:00,25.7,21.3,30.38,WNW,289,1.0,30.0,83,0.00,,,0.00,Wunderground v.1.15,2013-02-02 15:14:00,
2013-02-02 09:20:00,25.1,21.8,30.36,West,276,2.0,30.0,87,0.00,,,0.00,Wunderground v.1.15,2013-02-02 15:20:00,
2013-02-02 09:25:00,24.8,22.3,30.36,West,280,2.0,30.0,90,0.00,,,0.00,Wunderground v.1.15,2013-02-02 15:25:00,
2013-02-02 09:31:00,24.7,22.4,30.35,WSW,248,2.0,30.0,91,0.00,,,0.00,Wunderground v.1.15,2013-02-02 15:31:00,
2013-02-02 09:37:00,24.8,22.8,30.34,West,278,3.0,30.0,92,0.00,,,0.00,Wunderground v.1.15,2013-02-02 15:37:00,
2013-02-02 09:42:00,24.7,22.7,30.34,WNW,287,3.0,30.0,92,0.00,,,0.00,Wunderground v.1.15,2013-02-02 15:42:00,
2013-02-02 09:48:00,24.5,22.5,30.34,West,281,3.0,30.0,92,0.00,,,0.00,Wunderground v.1.15,2013-02-02 15:48:00,
2013-02-02 09:53:00,24.5,22.5,30.34,West,275,3.0,30.0,92,0.00,,,0.00,Wunderground v.1.15,2013-02-02 15:53:00,
2013-02-02 09:59:00,24.6,22.9,30.33,West,274,3.0,30.0,93,0.00,,,0.00,Wunderground v.1.15,2013-02-02 15:59:00,
2013-02-02 10:04:00,24.7,23.0,30.33,WSW,257,3.0,30.0,93,0.00,,,0.00,Wunderground v.1.15,2013-02-02 16:04:00,
2013-02-02 10:09:00,25.1,23.4,30.33,West,265,2.0,30.0,93,0.00,,,0.00,Wunderground v.1.15,2013-02-02 16:09:00,
2013-02-02 10:15:00,25.4,23.7,30.33,WSW,254,2.0,30.0,93,0.00,,,0.00,Wunderground v.1.15,2013-02-02 16:15:00,
2013-02-02 10:20:00,25.7,24.0,30.32,West,275,4.0,4.0,93,0.00,,,0.00,Wunderground v.1.15,2013-02-02 16:20:00,
2013-02-02 10:25:00,26.1,24.4,30.32,West,265,4.0,30.0,93,0.00,,,0.00,Wunderground v.1.15,2013-02-02 16:25:00,
2013-02-02 10:30:00,26.5,24.8,30.32,WNW,285,3.0,3.0,93,0.00,,,0.00,Wunderground v.1.15,2013-02-02 16:30:00,
2013-02-02 10:36:00,27.0,25.2,30.31,West,259,3.0,30.0,93,0.00,,,0.00,Wunderground v.1.15,2013-02-02 16:36:00,
2013-02-02 10:41:00,27.7,25.7,30.30,WSW,247,4.0,30.0,92,0.00,,,0.00,Wunderground v.1.15,2013-02-02 16:41:00,
2013-02-02 10:47:00,28.0,25.7,30.30,WSW,254,5.0,30.0,91,0.00,,,0.00,Wunderground v.1.15,2013-02-02 16:47:00,
2013-02-02 10:52:00,28.0,25.7,30.30,West,268,5.0,30.0,91,0.00,,,0.00,Wunderground v.1.15,2013-02-02 16:52:00,
2013-02-02 10:57:00,28.4,25.8,30.29,SW,215,5.0,30.0,90,0.00,,,0.00,Wunderground v.1.15,2013-02-02 16:57:00,
2013-02-02 11:03:00,29.0,26.4,30.29,SW,230,6.0,30.0,90,0.00,,,0.00,Wunderground v.1.15,2013-02-02 17:03:00,
2013-02-02 11:08:00,29.6,27.0,30.28,WSW,249,4.0,30.0,90,0.00,,,0.00,Wunderground v.1.15,2013-02-02 17:08:00,
2013-02-02 11:13:00,29.7,26.9,30.28,South,191,3.0,30.0,89,0.00,,,0.00,Wunderground v.1.15,2013-02-02 17:13:00,
2013-02-02 11:18:00,30.1,27.3,30.28,West,273,4.0,30.0,89,0.00,,,0.00,Wunderground v.1.15,2013-02-02 17:18:00,
2013-02-02 11:24:00,30.7,27.6,30.27,WSW,245,3.0,30.0,88,0.00,,,0.00,Wunderground v.1.15,2013-02-02 17:24:00,
2013-02-02 11:29:00,30.8,27.7,30.27,WSW,255,3.0,30.0,88,0.00,,,0.00,Wunderground v.1.15,2013-02-02 17:29:00,
2013-02-02 11:35:00,31.2,27.8,30.26,West,279,3.0,30.0,87,0.00,,,0.00,Wunderground v.1.15,2013-02-02 17:35:00,
2013-02-02 11:40:00,31.8,28.4,30.26,WSW,257,3.0,30.0,87,0.00,,,0.00,Wunderground v.1.15,2013-02-02 17:40:00,
2013-02-02 11:45:00,32.0,27.7,30.26,WSW,249,3.0,30.0,84,0.00,,,0.00,Wunderground v.1.15,2013-02-02 17:45:00,
2013-02-02 11:51:00,31.9,27.6,30.25,West,271,4.0,30.0,84,0.00,,,0.00,Wunderground v.1.15,2013-02-02 17:51:00,
2013-02-02 11:56:00,32.1,28.1,30.25,West,268,4.0,30.0,85,0.00,,,0.00,Wunderground v.1.15,2013-02-02 17:56:00,
2013-02-02 12:02:00,32.3,28.3,30.24,SW,228,2.0,30.0,85,0.00,,,0.00,Wunderground v.1.15,2013-02-02 18:02:00,
2013-02-02 12:07:00,31.9,27.9,30.24,WSW,257,3.0,30.0,85,0.00,,,0.00,Wunderground v.1.15,2013-02-02 18:07:00,
2013-02-02 12:12:00,31.8,27.8,30.24,WSW,251,4.0,30.0,85,0.00,,,0.00,Wunderground v.1.15,2013-02-02 18:12:00,
2013-02-02 12:18:00,31.7,28.0,30.23,WNW,282,3.0,30.0,86,0.00,,,0.00,Wunderground v.1.15,2013-02-02 18:18:00,
2013-02-02 12:23:00,31.8,28.1,30.23,WSW,256,2.0,30.0,86,0.00,,,0.00,Wunderground v.1.15,2013-02-02 18:23:00,
2013-02-02 12:28:00,32.5,28.8,30.22,West,268,3.0,30.0,86,0.00,,,0.00,Wunderground v.1.15,2013-02-02 18:28:00,
2013-02-02 12:34:00,32.7,28.7,30.21,West,275,3.0,30.0,85,0.00,,,0.00,Wunderground v.1.15,2013-02-02 18:34:00,
2013-02-02 12:39:00,32.8,28.5,30.21,WSW,254,3.0,30.0,84,0.00,,,0.00,Wunderground v.1.15,2013-02-02 18:39:00,
2013-02-02 12:44:00,32.6,28.3,30.21,SSW,205,4.0,30.0,84,0.00,,,0.00,Wunderground v.1.15,2013-02-02 18:44:00,
2013-02-02 12:50:00,32.5,28.2,30.20,SW,224,5.0,30.0,84,0.00,,,0.00,Wunderground v.1.15,2013-02-02 18:50:00,
2013-02-02 12:55:00,32.4,28.1,30.20,West,270,4.0,30.0,84,0.00,,,0.00,Wunderground v.1.15,2013-02-02 18:55:00,
2013-02-02 13:00:00,32.5,28.5,30.20,WSW,249,4.0,30.0,85,0.00,,,0.00,Wunderground v.1.15,2013-02-02 19:00:00,
2013-02-02 13:06:00,32.5,28.2,30.19,WSW,242,5.0,30.0,84,0.00,,,0.00,Wunderground v.1.15,2013-02-02 19:06:00,
2013-02-02 13:11:00,32.7,28.4,30.19,West,268,5.0,30.0,84,0.00,,,0.00,Wunderground v.1.15,2013-02-02 19:11:00,
2013-02-02 13:16:00,32.9,28.3,30.19,SW,223,4.0,30.0,83,0.00,,,0.01,Wunderground v.1.15,2013-02-02 19:16:00,
2013-02-02 13:22:00,32.9,28.3,30.19,West,264,5.0,30.0,83,0.00,,,0.01,Wunderground v.1.15,2013-02-02 19:22:00,
2013-02-02 13:28:00,33.0,28.4,30.19,West,268,5.0,30.0,83,0.00,,,0.01,Wunderground v.1.15,2013-02-02 19:28:00,
2013-02-02 13:33:00,33.1,28.8,30.19,West,259,4.0,30.0,84,0.00,,,0.01,Wunderground v.1.15,2013-02-02 19:33:00,
2013-02-02 13:38:00,33.2,28.9,30.18,West,271,3.0,30.0,84,0.00,,,0.01,Wunderground v.1.15,2013-02-02 19:38:00,
2013-02-02 13:44:00,33.3,28.7,30.18,West,275,4.0,30.0,83,0.00,,,0.02,Wunderground v.1.15,2013-02-02 19:44:00,
2013-02-02 13:49:00,33.6,29.0,30.17,SW,225,4.0,30.0,83,0.00,,,0.02,Wunderground v.1.15,2013-02-02 19:49:00,
2013-02-02 13:54:00,33.7,29.4,30.17,WSW,238,5.0,30.0,84,0.00,,,0.02,Wunderground v.1.15,2013-02-02 19:54:00,
2013-02-02 14:00:00,34.0,29.4,30.17,West,272,5.0,5.0,83,0.00,,,0.02,Wunderground v.1.15,2013-02-02 20:00:00,
2013-02-02 14:05:00,34.3,29.4,30.16,West,260,5.0,30.0,82,0.00,,,0.02,Wunderground v.1.15,2013-02-02 20:05:00,
2013-02-02 14:11:00,34.9,30.3,30.17,WSW,245,4.0,30.0,83,0.00,,,0.02,Wunderground v.1.15,2013-02-02 20:11:00,
2013-02-02 14:17:00,35.2,30.0,30.17,WSW,249,3.0,30.0,81,0.00,,,0.03,Wunderground v.1.15,2013-02-02 20:17:00,
2013-02-02 14:22:00,35.4,29.8,30.16,SW,217,4.0,30.0,80,0.00,,,0.03,Wunderground v.1.15,2013-02-02 20:22:00,
2013-02-02 14:27:00,35.4,29.5,30.16,West,259,5.0,30.0,79,0.00,,,0.03,Wunderground v.1.15,2013-02-02 20:27:00,
2013-02-02 14:32:00,35.5,30.2,30.16,SW,226,6.0,30.0,81,0.00,,,0.03,Wunderground v.1.15,2013-02-02 20:32:00,
2013-02-02 14:38:00,36.0,30.1,30.15,WSW,240,6.0,30.0,79,0.00,,,0.03,Wunderground v.1.15,2013-02-02 20:38:00,
2013-02-02 14:43:00,36.5,30.3,30.14,SW,214,7.0,30.0,78,0.00,,,0.03,Wunderground v.1.15,2013-02-02 20:43:00,
2013-02-02 14:48:00,35.9,29.7,30.15,WSW,254,7.0,30.0,78,0.00,,,0.03,Wunderground v.1.15,2013-02-02 20:48:00,
2013-02-02 14:54:00,35.4,29.5,30.16,SSW,211,8.0,30.0,79,0.00,,,0.03,Wunderground v.1.15,2013-02-02 20:54:00,
2013-02-02 14:59:00,35.0,29.1,30.16,WSW,247,8.0,30.0,79,0.00,,,0.04,Wunderground v.1.15,2013-02-02 20:59:00,
2013-02-02 15:05:00,34.8,29.3,30.16,West,261,7.0,30.0,80,0.00,,,0.04,Wunderground v.1.15,2013-02-02 21:05:00,
2013-02-02 15:10:00,34.7,29.2,30.16,West,262,6.0,30.0,80,0.00,,,0.04,Wunderground v.1.15,2013-02-02 21:10:00,
2013-02-02 15:16:00,34.7,29.2,30.16,WSW,254,5.0,30.0,80,0.00,,,0.04,Wunderground v.1.15,2013-02-02 21:16:00,
2013-02-02 15:21:00,34.7,29.5,30.16,SSW,205,5.0,30.0,81,0.00,,,0.04,Wunderground v.1.15,2013-02-02 21:21:00,
2013-02-02 15:26:00,34.7,29.5,30.16,West,264,6.0,30.0,81,0.00,,,0.04,Wunderground v.1.15,2013-02-02 21:26:00,
2013-02-02 15:31:00,34.8,29.3,30.16,WSW,247,6.0,30.0,80,0.00,,,0.04,Wunderground v.1.15,2013-02-02 21:31:00,
2013-02-02 15:37:00,34.9,29.4,30.16,West,275,6.0,30.0,80,0.00,,,0.04,Wunderground v.1.15,2013-02-02 21:37:00,
2013-02-02 15:42:00,34.9,29.4,30.16,WSW,252,6.0,30.0,80,0.00,,,0.04,Wunderground v.1.15,2013-02-02 21:42:00,
2013-02-02 15:48:00,35.3,29.4,30.15,West,278,6.0,30.0,79,0.00,,,0.04,Wunderground v.1.15,2013-02-02 21:48:00,
2013-02-02 15:53:00,36.1,29.9,30.15,West,275,5.0,30.0,78,0.00,,,0.04,Wunderground v.1.15,2013-02-02 21:53:00,
2013-02-02 15:58:00,36.5,30.0,30.15,WNW,287,5.0,30.0,77,0.00,,,0.04,Wunderground v.1.15,2013-02-02 21:58:00,
2013-02-02 16:04:00,36.6,30.1,30.15,WSW,258,5.0,30.0,77,0.00,,,0.04,Wunderground v.1.15,2013-02-02 22:04:00,
2013-02-02 16:09:00,36.7,30.2,30.14,West,280,6.0,30.0,77,0.00,,,0.04,Wunderground v.1.15,2013-02-02 22:09:00,
2013-02-02 16:14:00,36.5,30.0,30.14,West,260,6.0,30.0,77,0.00,,,0.04,Wunderground v.1.15,2013-02-02 22:14:00,
2013-02-02 16:20:00,36.0,29.8,30.14,WSW,240,5.0,30.0,78,0.00,,,0.04,Wunderground v.1.15,2013-02-02 22:20:00,
2013-02-02 16:25:00,35.7,29.8,30.13,West,265,5.0,30.0,79,0.00,,,0.04,Wunderground v.1.15,2013-02-02 22:25:00,
2013-02-02 16:31:00,35.4,29.5,30.13,West,261,6.0,30.0,79,0.00,,,0.04,Wunderground v.1.15,2013-02-02 22:31:00,
2013-02-02 16:36:00,35.3,29.7,30.13,West,269,5.0,30.0,80,0.00,,,0.04,Wunderground v.1.15,2013-02-02 22:36:00,
2013-02-02 16:41:00,35.1,29.6,30.13,SW,227,5.0,30.0,80,0.00,,,0.04,Wunderground v.1.15,2013-02-02 22:41:00,
2013-02-02 16:46:00,35.0,29.5,30.13,West,271,7.0,30.0,80,0.00,,,0.04,Wunderground v.1.15,2013-02-02 22:46:00,
2013-02-02 16:52:00,34.8,29.6,30.13,West,277,5.0,30.0,81,0.00,,,0.04,Wunderground v.1.15,2013-02-02 22:52:00,
2013-02-02 16:57:00,34.6,29.7,30.13,West,268,3.0,30.0,82,0.00,,,0.04,Wunderground v.1.15,2013-02-02 22:57:00,
2013-02-02 17:02:00,34.4,29.5,30.14,West,279,4.0,30.0,82,0.00,,,0.04,Wunderground v.1.15,2013-02-02 23:02:00,
2013-02-02 17:08:00,34.2,29.6,30.14,SW,233,5.0,30.0,83,0.00,,,0.04,Wunderground v.1.15,2013-02-02 23:08:00,
2013-02-02 17:13:00,34.1,29.5,30.14,WSW,250,6.0,30.0,83,0.00,,,0.04,Wunderground v.1.15,2013-02-02 23:13:00,
2013-02-02 17:18:00,34.0,29.7,30.14,WSW,238,6.0,30.0,84,0.00,,,0.04,Wunderground v.1.15,2013-02-02 23:18:00,
2013-02-02 17:24:00,34.0,29.7,30.14,West,276,6.0,30.0,84,0.00,,,0.04,Wunderground v.1.15,2013-02-02 23:24:00,
2013-02-02 17:29:00,34.0,29.7,30.13,SW,233,7.0,30.0,84,0.00,,,0.04,Wunderground v.1.15,2013-02-02 23:29:00,
2013-02-02 17:34:00,33.9,29.6,30.14,West,272,7.0,30.0,84,0.00,,,0.04,Wunderground v.1.15,2013-02-02 23:34:00,
2013-02-02 17:40:00,33.9,29.9,30.14,WSW,254,6.0,30.0,85,0.00,,,0.04,Wunderground v.1.15,2013-02-02 23:40:00,
2013-02-02 17:45:00,33.8,29.8,30.14,West,274,6.0,30.0,85,0.00,,,0.04,Wunderground v.1.15,2013-02-02 23:45:00,
2013-02-02 17:50:00,33.8,29.8,30.14,WSW,252,5.0,30.0,85,0.00,,,0.04,Wunderground v.1.15,2013-02-02 23:50:00,
2013-02-02 17:56:00,33.7,30.0,30.14,WNW,296,5.0,30.0,86,0.00,,,0.04,Wunderground v.1.15,2013-02-02 23:56:00,
2013-02-02 18:01:00,33.5,29.8,30.14,West,269,5.0,30.0,86,0.00,,,0.04,Wunderground v.1.15,2013-02-03 00:01:00,
2013-02-02 18:06:00,33.3,29.8,30.14,West,275,5.0,30.0,87,0.00,,,0.04,Wunderground v.1.15,2013-02-03 00:06:00,
2013-02-02 18:12:00,33.2,29.8,30.14,WSW,249,5.0,7.0,87,0.00,,,0.04,Wunderground v.1.15,2013-02-03 00:12:00,
2013-02-02 18:17:00,33.1,29.7,30.14,West,259,6.0,30.0,87,0.00,,,0.04,Wunderground v.1.15,2013-02-03 00:17:00,
2013-02-02 18:22:00,33.0,29.8,30.14,WNW,287,5.0,30.0,88,0.00,,,0.04,Wunderground v.1.15,2013-02-03 00:22:00,
2013-02-02 18:27:00,33.0,29.8,30.14,West,259,5.0,30.0,88,0.00,,,0.04,Wunderground v.1.15,2013-02-03 00:27:00,
2013-02-02 18:33:00,32.9,30.0,30.14,WNW,289,5.0,30.0,89,0.00,,,0.04,Wunderground v.1.15,2013-02-03 00:33:00,
2013-02-02 18:38:00,32.9,30.0,30.14,WNW,287,4.0,30.0,89,0.00,,,0.04,Wunderground v.1.15,2013-02-03 00:38:00,
2013-02-02 18:44:00,32.7,29.8,30.14,WNW,292,3.0,30.0,89,0.00,,,0.04,Wunderground v.1.15,2013-02-03 00:44:00,
2013-02-02 18:49:00,32.6,29.7,30.15,WSW,257,3.0,30.0,89,0.00,,,0.04,Wunderground v.1.15,2013-02-03 00:49:00,
2013-02-02 18:54:00,32.5,29.9,30.15,WNW,285,3.0,30.0,90,0.00,,,0.04,Wunderground v.1.15,2013-02-03 00:54:00,
2013-02-02 19:00:00,32.5,29.9,30.15,WNW,282,3.0,30.0,90,0.00,,,0.04,Wunderground v.1.15,2013-02-03 01:00:00,
2013-02-02 19:05:00,32.5,29.9,30.15,West,281,3.0,30.0,90,0.00,,,0.04,Wunderground v.1.15,2013-02-03 01:05:00,
2013-02-02 19:11:00,32.6,30.3,30.15,SSW,213,3.0,30.0,91,0.00,,,0.04,Wunderground v.1.15,2013-02-03 01:11:00,
2013-02-02 19:17:00,32.8,30.5,30.16,WSW,239,4.0,30.0,91,0.00,,,0.04,Wunderground v.1.15,2013-02-03 01:17:00,
2013-02-02 19:22:00,32.9,30.6,30.16,SW,233,4.0,30.0,91,0.00,,,0.04,Wunderground v.1.15,2013-02-03 01:22:00,
2013-02-02 19:28:00,33.0,30.7,30.16,SW,221,4.0,30.0,91,0.00,,,0.04,Wunderground v.1.15,2013-02-03 01:28:00,
2013-02-02 19:33:00,33.2,30.9,30.16,WNW,283,4.0,30.0,91,0.00,,,0.04,Wunderground v.1.15,2013-02-03 01:33:00,
2013-02-02 19:39:00,33.2,30.9,30.16,WSW,249,4.0,30.0,91,0.00,,,0.04,Wunderground v.1.15,2013-02-03 01:39:00,
2013-02-02 19:44:00,33.2,30.9,30.17,South,183,4.0,30.0,91,0.00,,,0.04,Wunderground v.1.15,2013-02-03 01:44:00,
2013-02-02 19:49:00,33.3,31.0,30.17,West,268,4.0,30.0,91,0.00,,,0.04,Wunderground v.1.15,2013-02-03 01:49:00,
2013-02-02 19:55:00,33.5,31.2,30.17,WSW,257,5.0,30.0,91,0.00,,,0.04,Wunderground v.1.15,2013-02-03 01:55:00,
2013-02-02 20:00:00,33.5,31.2,30.17,WNW,299,4.0,4.0,91,0.00,,,0.04,Wunderground v.1.15,2013-02-03 02:00:00,
2013-02-02 20:06:00,33.4,31.3,30.16,West,275,3.0,30.0,92,0.00,,,0.04,Wunderground v.1.15,2013-02-03 02:06:00,
2013-02-02 20:11:00,33.5,31.4,30.17,West,280,4.0,30.0,92,0.00,,,0.04,Wunderground v.1.15,2013-02-03 02:11:00,
2013-02-02 20:16:00,33.6,31.5,30.16,West,275,4.0,30.0,92,0.00,,,0.04,Wunderground v.1.15,2013-02-03 02:16:00,
2013-02-02 20:22:00,33.4,31.3,30.16,WSW,249,3.0,30.0,92,0.00,,,0.04,Wunderground v.1.15,2013-02-03 02:22:00,
2013-02-02 20:27:00,33.3,31.2,30.16,West,281,2.0,30.0,92,0.00,,,0.04,Wunderground v.1.15,2013-02-03 02:27:00,
2013-02-02 20:33:00,32.9,30.8,30.16,WNW,302,2.0,30.0,92,0.00,,,0.04,Wunderground v.1.15,2013-02-03 02:33:00,
2013-02-02 20:38:00,32.8,30.7,30.16,NW,325,1.0,30.0,92,0.00,,,0.04,Wunderground v.1.15,2013-02-03 02:38:00,
2013-02-02 20:43:00,32.5,30.4,30.17,WNW,299,1.0,30.0,92,0.00,,,0.04,Wunderground v.1.15,2013-02-03 02:43:00,
2013-02-02 20:49:00,32.1,30.3,30.17,WNW,302,1.0,30.0,93,0.00,,,0.04,Wunderground v.1.15,2013-02-03 02:49:00,
2013-02-02 20:54:00,31.8,30.0,30.17,West,264,2.0,30.0,93,0.00,,,0.04,Wunderground v.1.15,2013-02-03 02:54:00,
2013-02-02 21:00:00,32.5,31.2,30.17,West,280,3.0,30.0,95,0.00,,,0.04,Wunderground v.1.15,2013-02-03 03:00:00,
2013-02-02 21:05:00,33.0,31.5,30.17,WNW,287,3.0,30.0,94,0.00,,,0.04,Wunderground v.1.15,2013-02-03 03:05:00,
2013-02-02 21:10:00,33.0,31.5,30.18,West,268,3.0,30.0,94,0.00,,,0.04,Wunderground v.1.15,2013-02-03 03:10:00,
2013-02-02 21:16:00,33.7,32.2,30.18,West,259,4.0,30.0,94,0.00,,,0.04,Wunderground v.1.15,2013-02-03 03:16:00,
2013-02-02 21:21:00,33.8,32.3,30.18,SSW,198,5.0,30.0,94,0.00,,,0.04,Wunderground v.1.15,2013-02-03 03:21:00,
2013-02-02 21:26:00,33.8,32.0,30.18,WSW,244,3.0,30.0,93,0.00,,,0.04,Wunderground v.1.15,2013-02-03 03:26:00,
2013-02-02 21:32:00,34.1,32.3,30.17,SW,218,4.0,30.0,93,0.00,,,0.04,Wunderground v.1.15,2013-02-03 03:32:00,
2013-02-02 21:37:00,33.9,32.1,30.17,West,278,4.0,30.0,93,0.00,,,0.04,Wunderground v.1.15,2013-02-03 03:37:00,
2013-02-02 21:42:00,33.7,31.9,30.17,West,269,2.0,30.0,93,0.00,,,0.04,Wunderground v.1.15,2013-02-03 03:42:00,
2013-02-02 21:48:00,33.6,31.8,30.17,West,275,1.0,30.0,93,0.00,,,0.04,Wunderground v.1.15,2013-02-03 03:48:00,
2013-02-02 21:53:00,33.3,31.2,30.17,WNW,300,1.0,30.0,92,0.00,,,0.04,Wunderground v.1.15,2013-02-03 03:53:00,
2013-02-02 21:58:00,32.7,30.9,30.17,WNW,297,2.0,30.0,93,0.00,,,0.04,Wunderground v.1.15,2013-02-03 03:58:00,
2013-02-02 22:04:00,33.0,31.5,30.17,WNW,292,2.0,30.0,94,0.00,,,0.04,Wunderground v.1.15,2013-02-03 04:04:00,
2013-02-02 22:09:00,33.2,31.7,30.17,West,268,1.0,30.0,94,0.00,,,0.04,Wunderground v.1.15,2013-02-03 04:09:00,
2013-02-02 22:14:00,33.7,31.9,30.16,WNW,293,1.0,30.0,93,0.00,,,0.04,Wunderground v.1.15,2013-02-03 04:14:00,
2013-02-02 22:20:00,33.3,31.5,30.17,WNW,296,2.0,2.0,93,0.00,,,0.04,Wunderground v.1.15,2013-02-03 04:20:00,
2013-02-02 22:25:00,33.4,31.9,30.17,WNW,298,2.0,30.0,94,0.00,,,0.04,Wunderground v.1.15,2013-02-03 04:25:00,
2013-02-02 22:30:00,33.4,31.6,30.17,WNW,297,2.0,30.0,93,0.00,,,0.04,Wunderground v.1.15,2013-02-03 04:30:00,
2013-02-02 22:35:00,33.8,32.3,30.17,West,279,2.0,30.0,94,0.00,,,0.04,Wunderground v.1.15,2013-02-03 04:35:00,
2013-02-02 22:41:00,34.1,32.3,30.17,WNW,284,2.0,30.0,93,0.00,,,0.04,Wunderground v.1.15,2013-02-03 04:41:00,
2013-02-02 22:46:00,34.3,32.2,30.17,WNW,285,2.0,30.0,92,0.00,,,0.04,Wunderground v.1.15,2013-02-03 04:46:00,
2013-02-02 22:52:00,34.6,32.2,30.17,West,259,2.0,4.0,91,0.00,,,0.04,Wunderground v.1.15,2013-02-03 04:52:00,
2013-02-02 22:57:00,34.4,32.0,30.17,West,279,3.0,30.0,91,0.00,,,0.04,Wunderground v.1.15,2013-02-03 04:57:00,
2013-02-02 23:01:00,34.1,31.7,30.17,West,279,2.0,30.0,91,0.00,,,0.04,Wunderground v.1.15,2013-02-03 05:01:00,
2013-02-02 23:02:00,34.1,31.7,30.17,WSW,257,2.0,30.0,91,0.00,,,0.04,Wunderground v.1.15,2013-02-03 05:02:00,
2013-02-02 23:04:00,33.9,31.6,30.17,West,276,1.0,30.0,91,0.00,,,0.04,Wunderground v.1.15,2013-02-03 05:04:00,
2013-02-02 23:05:00,33.9,31.6,30.17,West,278,1.0,30.0,91,0.00,,,0.04,Wunderground v.1.15,2013-02-03 05:05:00,
2013-02-02 23:10:00,33.6,31.5,30.17,West,276,1.0,30.0,92,0.00,,,0.04,Wunderground v.1.15,2013-02-03 05:10:00,
2013-02-02 23:15:00,33.4,31.3,30.17,West,276,1.0,30.0,92,0.00,,,0.04,Wunderground v.1.15,2013-02-03 05:15:00,
2013-02-02 23:20:00,33.3,31.5,30.17,WNW,288,1.0,30.0,93,0.00,,,0.04,Wunderground v.1.15,2013-02-03 05:20:00,
2013-02-02 23:26:00,33.1,31.3,30.17,WNW,292,1.0,30.0,93,0.00,,,0.04,Wunderground v.1.15,2013-02-03 05:26:00,
2013-02-02 23:31:00,32.8,31.0,30.17,WNW,290,1.0,30.0,93,0.00,,,0.04,Wunderground v.1.15,2013-02-03 05:31:00,
2013-02-02 23:37:00,32.7,30.9,30.16,WNW,285,1.0,30.0,93,0.00,,,0.04,Wunderground v.1.15,2013-02-03 05:37:00,
2013-02-02 23:42:00,32.5,30.7,30.16,WNW,294,1.0,30.0,93,0.00,,,0.04,Wunderground v.1.15,2013-02-03 05:42:00,
2013-02-02 23:47:00,32.4,30.6,30.16,WNW,293,1.0,30.0,93,0.00,,,0.04,Wunderground v.1.15,2013-02-03 05:47:00,
2013-02-02 23:52:00,32.2,30.4,30.16,West,278,2.0,30.0,93,0.00,,,0.04,Wunderground v.1.15,2013-02-03 05:52:00,
2013-02-02 23:58:00,32.3,30.8,30.16,West,276,2.0,30.0,94,0.00,,,0.04,Wunderground v.1.15,2013-02-03 05:58:00,